Weather History for Casper, WY

Change the Weather History Date:

Friday, February 8, 2013

  Actual Average Record
Temperature  
Mean Temperature 36 °F 25 °F  
Max Temperature 47 °F 36 °F 61 °F (1996)
Min Temperature 25 °F 15 °F -24 °F (1982)
Degree Days  
Heating Degree Days 29 40  
Month to date heating degree days 250 320  
Since 1 July heating degree days 4201 4697  
Cooling Degree Days 0 0  
Month to date cooling degree days 0 0  
Year to date cooling degree days 0 0  
Moisture  
Dew Point 15 °F    
Average Humidity 55    
Maximum Humidity 85    
Minimum Humidity 25    
Precipitation  
Precipitation 0.01 in 0.02 in 0.21 in (1966)
Month to date precipitation 0.01 0.15  
Year to date precipitation 0.28 0.66  
Snow  
Snow T in 0.30 in - ()
Month to date snowfall T 2.7  
Since 1 July snowfall 23.2 42.3  
Snow Depth T in    
Sea Level Pressure  
Sea Level Pressure 29.84 in    
Wind  
Wind Speed 9 mph (North)    
Max Wind Speed 23 mph    
Max Gust Speed 28 mph    
Visibility 9 miles    
Events Snow    
T = Trace of Precipitation, MM = Missing Value Source: NWS Daily Summary

Daily Weather History Graph

Daily Weather History Graph

Search for Another Location

Airport:

Trip Planner

Search our weather history database for the weather conditions in past years. The results will help you decide how hot, cold, wet, or windy it might be!

Date:

Astronomy

Feb. 08, 2013 Rise Set
Actual Time 7:12 AM MST 5:28 PM MST
Civil Twilight 6:42 AM MST 5:58 PM MST
Nautical Twilight 6:09 AM MST 6:31 PM MST
Astronomical Twilight 5:36 AM MST 7:04 PM MST
Moon 5:44 AM MST (2/8) 4:04 PM MST (2/8)
Length of Visible Light 11h 15m
Length of Day
10h 16m
Waning Crescent, 3% of the Moon is Illuminated
Feb 8
Waning Crescent
Feb 10
New
Feb 17
First Quarter
Feb 25
Full
Mar 4
Last Quarter

Hourly Weather History & Observations

Time (MST) Temp. Windchill Dew Point Humidity Pressure Visibility Wind Dir Wind Speed Gust Speed Precip Events Conditions
12:53 AM 27.0 °F 16.7 °F 7.0 °F 43% 29.96 in 10.0 mi SW 11.5 mph - N/A   Clear
1:53 AM 26.1 °F 14.0 °F 7.0 °F 44% 29.94 in 10.0 mi SW 15.0 mph - N/A   Clear
2:53 AM 30.0 °F 18.3 °F 7.0 °F 38% 29.91 in 10.0 mi SW 17.3 mph - N/A   Clear
3:53 AM 27.0 °F 17.3 °F 7.0 °F 43% 29.93 in 10.0 mi WSW 10.4 mph - N/A   Clear
4:53 AM 30.0 °F 20.5 °F 10.9 °F 45% 29.91 in 10.0 mi SW 11.5 mph - N/A   Clear
5:53 AM 26.1 °F 15.6 °F 10.0 °F 51% 29.94 in 10.0 mi WSW 11.5 mph - N/A   Clear
6:53 AM 30.0 °F 22.4 °F 10.9 °F 45% 29.94 in 10.0 mi SW 8.1 mph - N/A   Clear
7:53 AM 25.0 °F 18.1 °F 10.0 °F 53% 29.95 in 10.0 mi NW 5.8 mph - N/A   Clear
8:53 AM 33.1 °F 24.4 °F 12.0 °F 42% 29.93 in 10.0 mi WSW 11.5 mph - N/A   Clear
9:53 AM 37.0 °F 32.4 °F 12.9 °F 37% 29.91 in 10.0 mi NW 5.8 mph - N/A   Clear
10:53 AM 42.1 °F 37.1 °F 14.0 °F 32% 29.88 in 10.0 mi NNW 8.1 mph - N/A   Clear
11:53 AM 44.1 °F 41.5 °F 14.0 °F 30% 29.83 in 10.0 mi NNW 4.6 mph - N/A   Clear
12:53 PM 46.0 °F 42.5 °F 14.0 °F 28% 29.79 in 10.0 mi Variable 6.9 mph - N/A   Scattered Clouds
1:53 PM 45.0 °F 40.1 °F 12.9 °F 27% 29.78 in 10.0 mi NNE 9.2 mph - N/A   Mostly Cloudy
2:53 PM 44.1 °F 40.1 °F 17.1 °F 34% 29.76 in 10.0 mi NNW 6.9 mph - N/A   Overcast
3:53 PM 45.0 °F 40.6 °F 17.1 °F 33% 29.77 in 10.0 mi NE 8.1 mph - N/A   Mostly Cloudy
4:53 PM 41.0 °F 34.3 °F 8.1 °F 26% 29.75 in 10.0 mi NNE 11.5 mph - N/A   Mostly Cloudy
5:53 PM 39.0 °F 31.4 °F 7.0 °F 27% 29.81 in 10.0 mi ENE 12.7 mph - N/A   Overcast
6:53 PM 37.0 °F 28.9 °F 18.0 °F 46% 29.80 in 10.0 mi ESE 12.7 mph - N/A   Overcast
7:53 PM 34.0 °F 29.8 °F 21.9 °F 61% 29.84 in 4.0 mi Variable 4.6 mph 21.9 mph 0.00 in Snow Light Snow
8:04 PM 33.8 °F 25.3 °F 23.0 °F 65% 29.78 in 2.0 mi East 11.5 mph - 0.00 in Snow Light Snow
8:07 PM 32.0 °F 23.0 °F 24.8 °F 75% 29.78 in 1.5 mi ENE 11.5 mph - 0.00 in Snow Light Snow
8:15 PM 32.0 °F 23.6 °F 24.8 °F 75% 29.78 in 2.0 mi NE 10.4 mph 17.3 mph 0.00 in Snow Light Snow
8:53 PM 30.0 °F 21.7 °F 27.0 °F 88% 29.82 in 5.0 mi North 9.2 mph - 0.01 in Snow Light Snow
9:53 PM 28.0 °F 18.6 °F 24.1 °F 85% 29.81 in 10.0 mi NNE 10.4 mph - 0.00 in   Overcast
10:20 PM 28.4 °F 22.2 °F 24.8 °F 86% 29.78 in 10.0 mi ENE 5.8 mph - N/A   Overcast
10:53 PM 28.0 °F 24.2 °F 24.1 °F 85% 29.80 in 10.0 mi North 3.5 mph - N/A   Overcast
11:53 PM 27.0 °F 21.6 °F 23.0 °F 85% 29.81 in 10.0 mi SE 4.6 mph - 0.00 in   Overcast